SL-16 DEB *, 42255

Orbit data source: Space-Track

SL-16 DEB *, 42255 is space debris in LEO originally from a launch on Fri, 26 Mar 1993 UTC launched from the Tyuratam Missile And Space Complex (TTMTR). Debris objects in space refer to the collection of defunct objects orbiting the Earth. Examples of debris include non-operational satellites, rocket bodies, and fragments generated from explosions, collisions, or faulty payload assembly.

Loading next visibility...
Identifier
42255, 1993-016DK
Orbit
LEO
Country
Flag of CISCIS
Related business
Manufacturer
Unknown
Mission
Spacecraft
Bus & Motor
Unknown
Mass
Unknown
Launch date (UTC)
1993-03-26 (33 years ago)
Launch vehicle
Unknown
Launch site
Tyuratam Missile And Space Complex (TTMTR)
Object type
Payload
Rocket body
Debris
Shape & HBR
Unknown shape, 0.1 m
Radar Cross Section
Small (<0.1 m²)

Expand to show TLE details & history
Last TLE update: 21 hours ago

TLE from 21 hours ago
0 SL-16 DEB *
1 42255U 93016DK  25341.01371006  .00001525  00000-0  70157-3 0  9996
2 42255  71.0077 344.2463 0006804  36.8210 354.3517 14.22748516623702
Epoch: 2025-12-07T00:19Z
TLE epoch observation values (Epoch: 2025-12-07T00:19:44.549Z)
Latitude
29.35506°
Longitude
-85.62075°
Altitude
814.341 km
Speed
7.451 km/s
True Right ascension
23h 41m 23s
True Declination
29° 12' 34"
Sunlit
Object was in daylight at epoch
Visualization orbit readout
Latitude
Unknown
Longitude
Unknown
Altitude
Unknown
Speed
Unknown
Apparent Right ascension
Unknown
Apparent Declination
Unknown
Sunlit
N/A
Visualization observer readout
Local Sidereal Time
19:08:14
Azimuth
Unknown
Elevation
Unknown
Doppler factor
Unknown
Orbital elements
Apogee altitude
818.883 km
Perigee altitude
809.095 km
Semi-major axis
7,192.126 km
Eccentricity
0.00068
Inclination
71.0077°
RAAN
344.2463°
Arg. of periapsis
36.821°
True anomaly
354.34402°
Mean anomaly
354.3517°
Eccentric anomaly
354.34786°
Mean motion
3.55842 °/min
Orbital period
101.17 mins
BSTAR
0.00070157
Loading maneuver chart data...
Computing Atmospheric mass density...
Loading historical data...
Loading historical data...
Loading historical data...
Loading historical data...
Loading historical data...
Loading historical data...
Loading historical data...

Documentation

Showing up to 5 results
|